Regional Weather Roundup
Issued by NWS Portland, ME

Home | Current Version | Previous Version | Text Only | Print | Product List | Glossary On
Versions: 1 2 3 4 5 6 7 8 9 10 11 12 13 14 15 16 17 18 19 20 21 22 23 24 25 26 27 28 29 30 31 32 33 34 35 36 37 38 39 40 41 42 43 44 45 46 47 48 49 50
000
ASUS41 KGYX 202110
RWRGYX
WEATHER ROUNDUP FOR MAINE AND NEW HAMPSHIRE
NATIONAL WEATHER SERVICE GRAY ME
400 PM EST SAT DEC 20 2014

MEZ002-005-006-010-012-015-018-020-021-024-026-027-029-202200-
MAINE

CITY           SKY/WX    TMP DP  RH WIND       PRES   REMARKS
PORTLAND       CLEAR     31  21  66 E3        30.31S
SANFORD        CLEAR     28  19  69 E3        30.29S
BAR HARBOR     CLOUDY    27  23  86 N8        30.32R
WISCASSET      CLEAR     28  19  69 VRB5      30.34R
ROCKLAND       CLOUDY    25  19  80 CALM      30.32R
FRYEBURG       CLEAR     30  15  53 CALM      30.28S
LEWISTONAUBURN CLEAR     28  16  59 E6        30.30R
AUGUSTA        CLOUDY    21  16  81 NE8       30.33R
WATERVILLE     CLOUDY    21  12  68 NE6       30.30R
BANGOR         CLOUDY    23  18  81 N8        30.34R
GREENVILLE       N/A     19  15  84 CALM      30.22R
MILLINOCKET    CLOUDY    20  16  84 N6        30.35R
HOULTON        CLOUDY    21  17  84 N6        30.32S
PRESQUE ISLE   CLOUDY    18   9  68 MISG      30.34R
FRENCHVILLE    PTCLDY    13   8  81 CALM      30.31S
CARIBOU        CLOUDY    16  11  80 NW3       30.34S HAZE
$$

NHZ002-005-008-009-011-012-014-202200-
NEW HAMPSHIRE

CITY           SKY/WX    TMP DP  RH WIND       PRES   REMARKS
PORTSMOUTH     MOCLDY    31  23  72 NE6       30.28R
ROCHESTER      MOCLDY    31  22  69 SE5       30.28R
NASHUA         CLOUDY    33  20  59 CALM      30.29R
MANCHESTER     CLOUDY    34  20  56 CALM      30.26R
CONCORD        CLOUDY    33  19  56 CALM      30.27R
LACONIA        CLEAR     32  18  55 NW3       30.25R
PLYMOUTH       FAIR      28  24  85 CALM      30.27R
BERLIN         CLEAR     22  14  71 CALM      30.23S
WHITEFIELD     CLEAR     22  19  89 CALM      30.24S
JAFFREY        CLOUDY    31  18  58 N3        30.23R
KEENE          MOCLDY    34  19  55 CALM      30.25S
LEBANON        PTCLDY    28  19  69 CALM      30.26R
MT WASHINGTON  PTCLDY    23  -9  23 E14         N/A  WCI  11
$$

VTZ005-007-008-202200-
VERMONT

CITY           SKY/WX    TMP DP  RH WIND       PRES   REMARKS
ST JOHNSBURY     N/A     27  17  66 MISG      30.25S
MONTPELIER     CLEAR     20  15  81 CALM      30.27R
BURLINGTON     PTCLDY    24  16  71 NW7       30.31R
$$

MAZ007-012-024-CTZ003-RIZ002-NYZ038-NYZ072-202200-
SOUTHERN NEW ENGLAND AND NY

CITY           SKY/WX    TMP DP  RH WIND       PRES   REMARKS
BOSTON         CLOUDY    34  25  69 N10       30.28R
WORCESTER      CLOUDY    30  22  72 VRB5      30.22S
NANTUCKET      CLOUDY    40  35  83 N7        30.22S
PROVIDENCE     CLOUDY    35  25  66 N9        30.26R
HARTFORD       MOCLDY    32  19  58 CALM      30.25S
ALBANY         MOCLDY    30  17  58 N3        30.29S
NEW YORK CITY  CLOUDY    33  21  61 NE6       30.27R
$$

ANZ081-ANZ082-ANZ150-NHZ014-MEZ023>029-202200-
COASTAL MARINE OBSERVATIONS

STATION/POSITION TIME  TEMP    WIND        PRES    WAVE
                       AIR SEA DIR/SP/G            HT/PER
                 (UTC) (F)     (DEG/KT/KT) (MB)    (FT/S)
MOUNT DESERT ROC 2100   31                 1025.5R
MATINICUS ROCK   2100           20/ 11/ 13 1026.1R
PORTLAND WX BUOY 2050   31 43   60/  4/  6 1026.5S   2/ 9
WELLS            2000   32 39   50/  6/  8 1025.3F
ISLE OF SHOALS   2100   33      40/ 18/ 20 1024.7R
JEFFREYS LEDGE   2021      49                N/A     4/ 6
CASHES LEDGE BUO 2050   34 48   10/ 12/ 14 1025.5R   3/ 6
$$

.............KEY..............
   WCI - WIND CHILL
   TC  - TEMPERATURE IN CELSIUS
   VSB - VISIBILITY IN MILES
   HX  - HEAT INDEX
   FAIR- INDICATES FEW OR NO CLOUDS BELOW 12,000 FT, WITH NO
         SIGNIFICANT WEATHER AND/OR OBSTRUCTIONS TO VISIBILITY.




USA.gov is the U.S. government's official web portal to all federal, state and local government web resources and services.